Baker, MT

7:41 AM MDT on August 19, 2017 (GMT -0600)
Baker Municipal

Weather History for KBHK - October, 2013

Change the Weather History Date:

Wednesday, October 2, 2013

  Actual Average Record
Temperature  
Mean Temperature 52 °F -  
Max Temperature 62 °F 79 °F 87 °F (2011)
Min Temperature 42 °F 38 °F 24 °F (2004)
Degree Days  
Heating Degree Days 14    
Growing Degree Days 2 (Base 50)    
Moisture  
Dew Point 29 °F    
Average Humidity 44    
Maximum Humidity 61    
Minimum Humidity 23    
Precipitation  
Precipitation 0.00 in - - ()
Sea Level Pressure  
Sea Level Pressure 30.01 in    
Wind  
Wind Speed 7 mph (NW)    
Max Wind Speed 17 mph    
Max Gust Speed 24 mph    
Visibility 10 miles    
Events      
Averages and records for this station are not official NWS values.
T = Trace of Precipitation, MM = Missing Value Source: NWS Daily Summary

Daily Weather History Graph

Daily Weather History Graph

Search for Another Location

Airport or City:

Trip Planner

Search our weather history database for the weather conditions in past years. The results will help you decide how hot, cold, wet, or windy it might be!

Date:

Astronomy

Oct. 02, 2013 Rise Set
Actual Time 6:57 AM MDT 6:34 PM MDT
Civil Twilight 6:27 AM MDT 7:04 PM MDT
Nautical Twilight 5:52 AM MDT 7:39 PM MDT
Astronomical Twilight 5:16 AM MDT 8:14 PM MDT
Moon 4:26 AM MDT (10/2) 5:16 PM MDT (10/2)
Length of Visible Light 12h 37m
Length of Day
11h 37m
Waning Crescent, 6% of the Moon is Illuminated
Oct 2
Waning Crescent
Oct 4
New
Oct 11
First Quarter
Oct 18
Full
Oct 26
Last Quarter

Hourly Weather History & Observations

Time (MDT) Temp. Windchill Dew Point Humidity Pressure Visibility Wind Dir Wind Speed Gust Speed Precip Events Conditions
12:51 AM 46.9 °F - 34.0 °F 61% 29.91 in 10.0 mi SE 8.1 mph - N/A   Clear
1:51 AM 48.9 °F - 35.1 °F 59% 29.93 in 10.0 mi NNW 3.5 mph - N/A   Overcast
2:51 AM 51.1 °F - 30.0 °F 44% 29.91 in 10.0 mi North 6.9 mph - N/A   Mostly Cloudy
3:51 AM 48.9 °F - 30.0 °F 48% 29.92 in 10.0 mi North 4.6 mph - N/A   Scattered Clouds
4:51 AM 45.0 °F 39.7 °F 28.9 °F 53% 29.94 in 10.0 mi NNW 10.4 mph - N/A   Clear
5:51 AM 42.1 °F 37.1 °F 27.0 °F 55% 29.99 in 10.0 mi West 8.1 mph - N/A   Clear
6:51 AM 42.1 °F 37.1 °F 28.0 °F 58% 30.03 in 10.0 mi WNW 8.1 mph - N/A   Clear
7:51 AM 42.1 °F 36.6 °F 28.9 °F 60% 30.07 in 10.0 mi WNW 9.2 mph - N/A   Overcast
8:51 AM 48.9 °F - 32.0 °F 52% 30.08 in 10.0 mi WNW 6.9 mph - N/A   Clear
9:51 AM 55.0 °F - 32.0 °F 42% 30.06 in 10.0 mi NW 6.9 mph - N/A   Clear
10:51 AM 57.0 °F - 32.0 °F 39% 30.06 in 10.0 mi WNW 17.3 mph 24.2 mph N/A   Clear
11:51 AM 59.0 °F - 27.0 °F 29% 30.06 in 10.0 mi NW 12.7 mph 21.9 mph N/A   Clear
12:51 PM 61.0 °F - 26.1 °F 26% 30.05 in 10.0 mi NW 9.2 mph 19.6 mph N/A   Clear
1:51 PM 61.0 °F - 23.0 °F 23% 30.02 in 10.0 mi WNW 9.2 mph 20.7 mph N/A   Clear
2:51 PM 60.1 °F - 24.1 °F 25% 30.01 in 10.0 mi NNW 16.1 mph 19.6 mph N/A   Clear
3:51 PM 60.1 °F - 25.0 °F 26% 30.01 in 10.0 mi North 9.2 mph - N/A   Clear
4:51 PM 57.9 °F - 25.0 °F 28% 30.02 in 10.0 mi NNW 15.0 mph - N/A   Clear
5:51 PM 55.9 °F - 25.0 °F 30% 30.03 in 10.0 mi North 6.9 mph - N/A   Clear
6:51 PM 52.0 °F - 30.0 °F 43% 30.05 in 10.0 mi NNE 5.8 mph - N/A   Mostly Cloudy
7:51 PM 48.9 °F - 30.0 °F 48% 30.05 in 10.0 mi Calm Calm - N/A   Scattered Clouds
8:51 PM 46.0 °F - 30.0 °F 54% 30.04 in 10.0 mi Calm Calm - N/A   Scattered Clouds
9:51 PM 48.0 °F - 30.0 °F 50% 30.02 in 10.0 mi Calm Calm - N/A   Overcast
10:51 PM 46.9 °F - 30.0 °F 52% 30.02 in 10.0 mi Calm Calm - N/A   Overcast
11:51 PM 46.9 °F - 30.9 °F 54% 30.02 in 10.0 mi Calm Calm - N/A   Overcast